sat.trackr.live / text

‹ back to catalog

STARLINK-35821

NORAD 66372 · 2025-254AA

PAYLOAD ACTIVE UNKNOWN

§ Identity

Operator
Country
US
Launch date
2025-11-06
Launch site
AFWTR
Launch vehicle
Mass (kg)
RCS (m²)

Purposes: comms

External: N2YO · Heavens-Above · Gunter

§ Orbital elements

Epoch: 2026-09-20T15:44:05.724384Z

Period
93.85 min
Inclination
53.1547°
Eccentricity
0.0001802
Mean motion
15.34416150 rev/d
Perigee alt
461.4 km
Apogee alt
463.9 km
Semi-major
6,840.8 km
B*
7.4378e-4
RAAN
42.7064°
Arg perigee
83.4239°
Mean anomaly
276.6968°
Rev number
4,888

§ Raw data

STARLINK-358211 66372U 25254AA  26263.65562181  .00024850  00000+0  74378-3 0  99952 66372  53.1547  42.7064 0001802  83.4239 276.6968 15.34416150 48886

JSON: /api/v1/satellites/66372 · /tle

For live sub-satellite position, see the globe view (requires WebGL).

§ Visibility from observer

Set your observer location to see the next 7 days of passes ≥ 10°. The values pass through the URL so the page stays shareable.

No JS? Fill the form by hand. The geolocation button needs JavaScript.